User: anonymous   Login
Location: Krakow
(50.0830°N, 19.9170°E)
Time: 17:28:21
(UTC+01:00)
Language:

A-11 Canister half - Orbit

View from above orbital plane
View from above orbital plane
View from above satellite
View from above satellite

Ground track
Ground track

The orbit is defined by the following mean orbital elements,

1 00051U          26073.05686197 +.00000000 +00000-0 +44462-3 0 00002
2 00051  47.2161 343.7236 0108934 274.7760  84.0597 12.18377151    04
Epoch (UTC): 14 March 2026 01:21:52
Eccentricity: 0.0108934
inclination: 47.2161°
perigee height: 1513 km
apogee height: 1687 km
right ascension of ascending node: 343.7236°
argument of perigee: 274.7760°
revolutions per day: 12.18377151
mean anomaly at epoch: 84.0597°

The dashed part of the orbit path shows where the satellite is in the earth's shadow,  

DLR